OBJECT V, 64895

Orbit data source: Space-Track

You're viewing an Uncataloged Satellite

Recently launched and/or uncataloged satellites may have evolving metadata. Metadata may include but not limited to: Owner, Maufacturer, Bus, Motor, and Mission.

OBJECT V, 64895 is a satellite in SSO that was launched on Fri, 25 Jul 2025 UTC via a SOYUZ-2-1B launch vehicle from the Vostochny Cosmodrome (VOSTO). Unknown objects in Earth's orbit typically refer to objects detected orbiting the Earth but have not yet been identified or cataloged. These objects could be anything from previously untracked satellites, spent rocket stages, debris from satellite collisions, or even natural meteoroids temporarily captured by Earth's gravity.

Loading next visibility...
Identifier
64895, 2025-155V
Orbit
SSO
Country
Flag of TBDTBD
Related business
None
Manufacturer
Unknown
Mission
Operational Commercial Technology
Bus & Motor
Unknown
Mass
Unknown
Launch date (UTC)
2025-07-25 (9 months ago)
Launch vehicle
SOYUZ-2-1B
Launch site
Vostochny Cosmodrome (VOSTO)
Object type
Unknown
Shape & HBR
Box, 1.1 m
Radar Cross Section
0.035 m², Small (<0.1 m²)

Expand to show TLE details & history
Last TLE update: 8 hours ago

TLE from 8 hours ago
0 OBJECT V
1 64895U 25155V   26121.17568586  .00013606  00000-0  48937-3 0  9998
2 64895  97.4548  89.5748 0006828   1.7316 358.3946 15.28715182 73563
Epoch: 2026-05-01T04:12Z
TLE epoch observation values (Epoch: 2026-05-01T04:12:59.258Z)
Latitude
-0.00003°
Longitude
167.21619°
Altitude
478.071 km
Speed
7.629 km/s
True Right ascension
05h 58m 17s
True Declination
0° 00' 00"
Sunlit
Object was in daylight at epoch
Visualization orbit readout
Latitude
Unknown
Longitude
Unknown
Altitude
Unknown
Speed
Unknown
Apparent Right ascension
Unknown
Apparent Declination
Unknown
Sunlit
N/A
Visualization observer readout
Local Sidereal Time
19:20:19
Azimuth
Unknown
Elevation
Unknown
Doppler factor
Unknown
Orbital elements
Apogee altitude
481.289 km
Perigee altitude
471.928 km
Semi-major axis
6,854.745 km
Eccentricity
0.00068
Inclination
97.4548°
RAAN
89.5748°
Arg. of periapsis
1.7316°
True anomaly
358.39241°
Mean anomaly
358.3946°
Eccentric anomaly
358.3935°
Mean motion
3.82434 °/min
Orbital period
94.13 mins
BSTAR
0.00048937
Loading maneuver chart data...
Computing Atmospheric mass density...
Loading historical data...
Loading historical data...
Loading historical data...
Loading historical data...
Loading historical data...
Loading historical data...
Loading historical data...

Documentation

Showing up to 5 results
|